Time,TemperatureF,DewpointF,PressureIn,WindDirection,WindDirectionDegrees,WindSpeedMPH,WindSpeedGustMPH,Humidity,HourlyPrecipIn,Conditions,Clouds,dailyrainin,SoftwareType,DateUTC
2013-03-30 15:56:00,81.2,62.4,29.92,WSW,257,2.0,0.0,53,0.00,,,0.00,WeatherTracker,2013-03-30 20:56:00,
2013-03-30 15:58:00,81.3,62.5,29.92,SSW,205,0.0,4.0,53,0.00,,,0.00,WeatherTracker,2013-03-30 20:58:00,
2013-03-30 16:03:00,81.2,61.9,29.92,SW,231,0.0,4.0,52,0.00,,,0.00,WeatherTracker,2013-03-30 21:03:00,
2013-03-30 16:08:00,81.2,61.9,29.91,SE,127,1.0,3.0,52,0.00,,,0.00,WeatherTracker,2013-03-30 21:08:00,
2013-03-30 16:13:00,81.8,62.4,29.91,South,172,0.0,8.0,52,0.00,,,0.00,WeatherTracker,2013-03-30 21:13:00,
2013-03-30 16:18:00,82.5,62.5,29.90,SW,235,0.0,8.0,51,0.00,,,0.00,WeatherTracker,2013-03-30 21:18:00,
2013-03-30 16:23:00,82.5,62.5,29.90,SW,235,3.0,6.0,51,0.00,,,0.00,WeatherTracker,2013-03-30 21:23:00,
2013-03-30 16:28:00,82.9,62.9,29.90,ENE,65,2.0,6.0,51,0.00,,,0.00,WeatherTracker,2013-03-30 21:28:00,
2013-03-30 16:33:00,82.0,62.1,29.90,WSW,244,3.0,6.0,51,0.00,,,0.00,WeatherTracker,2013-03-30 21:33:00,
2013-03-30 16:38:00,82.3,62.9,29.89,SW,224,1.0,6.0,52,0.00,,,0.00,WeatherTracker,2013-03-30 21:38:00,
2013-03-30 16:43:00,82.7,62.1,29.89,WSW,243,5.0,6.0,50,0.00,,,0.00,WeatherTracker,2013-03-30 21:43:00,
2013-03-30 16:48:00,81.9,62.0,29.89,WSW,252,2.0,7.0,51,0.00,,,0.00,WeatherTracker,2013-03-30 21:48:00,
2013-03-30 16:53:00,81.4,62.1,29.89,SW,234,0.0,7.0,52,0.00,,,0.00,WeatherTracker,2013-03-30 21:53:00,
2013-03-30 16:59:00,81.7,61.8,29.89,WSW,255,2.0,6.0,51,0.00,,,0.00,WeatherTracker,2013-03-30 21:59:00,
2013-03-30 17:04:00,81.5,61.6,29.89,WSW,257,3.0,4.0,51,0.00,,,0.00,WeatherTracker,2013-03-30 22:04:00,
2013-03-30 17:09:00,81.8,61.9,29.89,WSW,255,0.0,5.0,51,0.00,,,0.00,WeatherTracker,2013-03-30 22:09:00,
2013-03-30 17:14:00,82.2,62.2,29.89,WSW,244,2.0,5.0,51,0.00,,,0.00,WeatherTracker,2013-03-30 22:14:00,
2013-03-30 17:19:00,83.0,63.0,29.89,West,262,2.0,7.0,51,0.00,,,0.00,WeatherTracker,2013-03-30 22:19:00,
2013-03-30 17:24:00,83.1,61.9,29.88,WSW,245,2.0,7.0,49,0.00,,,0.00,WeatherTracker,2013-03-30 22:24:00,
2013-03-30 17:29:00,83.2,62.0,29.88,NNW,335,0.0,6.0,49,0.00,,,0.00,WeatherTracker,2013-03-30 22:29:00,
2013-03-30 17:34:00,83.2,62.6,29.88,WSW,242,2.0,5.0,50,0.00,,,0.00,WeatherTracker,2013-03-30 22:34:00,
2013-03-30 17:39:00,82.6,62.0,29.88,WSW,243,0.0,5.0,50,0.00,,,0.00,WeatherTracker,2013-03-30 22:39:00,
2013-03-30 17:44:00,82.4,63.0,29.88,West,266,0.0,5.0,52,0.00,,,0.00,WeatherTracker,2013-03-30 22:44:00,
2013-03-30 17:49:00,82.7,62.7,29.88,SE,145,4.0,6.0,51,0.00,,,0.00,WeatherTracker,2013-03-30 22:49:00,
2013-03-30 17:54:00,82.8,62.2,29.88,WSW,255,2.0,6.0,50,0.00,,,0.00,WeatherTracker,2013-03-30 22:54:00,
2013-03-30 17:59:00,82.6,62.6,29.88,West,269,1.0,4.0,51,0.00,,,0.00,WeatherTracker,2013-03-30 22:59:00,
2013-03-30 18:04:00,82.5,62.5,29.87,WSW,249,0.0,4.0,51,0.00,,,0.00,WeatherTracker,2013-03-30 23:04:00,
2013-03-30 18:09:00,82.7,62.1,29.87,South,176,0.0,3.0,50,0.00,,,0.00,WeatherTracker,2013-03-30 23:09:00,
2013-03-30 18:14:00,83.2,62.0,29.87,West,263,0.0,3.0,49,0.00,,,0.00,WeatherTracker,2013-03-30 23:14:00,
2013-03-30 18:19:00,83.2,61.4,29.87,WSW,237,0.0,4.0,48,0.00,,,0.00,WeatherTracker,2013-03-30 23:19:00,
2013-03-30 18:24:00,82.8,61.7,29.87,West,278,3.0,4.0,49,0.00,,,0.00,WeatherTracker,2013-03-30 23:24:00,
2013-03-30 18:29:00,82.4,61.9,29.87,West,266,3.0,4.0,50,0.00,,,0.00,WeatherTracker,2013-03-30 23:29:00,
2013-03-30 18:34:00,82.2,61.7,29.87,WSW,256,1.0,4.0,50,0.00,,,0.00,WeatherTracker,2013-03-30 23:34:00,
2013-03-30 18:39:00,81.9,62.5,29.86,WSW,244,4.0,4.0,52,0.00,,,0.00,WeatherTracker,2013-03-30 23:39:00,
2013-03-30 18:44:00,81.8,61.9,29.86,SSW,198,0.0,4.0,51,0.00,,,0.00,WeatherTracker,2013-03-30 23:44:00,
2013-03-30 18:49:00,81.6,61.7,29.86,ESE,102,7.0,7.0,51,0.00,,,0.00,WeatherTracker,2013-03-30 23:49:00,
2013-03-30 18:54:00,81.3,61.4,29.86,ESE,120,0.0,7.0,51,0.00,,,0.00,WeatherTracker,2013-03-30 23:54:00,
2013-03-30 19:00:00,81.2,61.9,29.86,West,271,0.0,7.0,52,0.00,,,0.00,WeatherTracker,2013-03-31 00:00:00,
2013-03-30 19:05:00,81.0,61.1,29.86,WSW,252,0.0,3.0,51,0.00,,,0.00,WeatherTracker,2013-03-31 00:05:00,
2013-03-30 19:10:00,80.7,61.4,29.86,West,278,1.0,3.0,52,0.00,,,0.00,WeatherTracker,2013-03-31 00:10:00,
2013-03-30 19:15:00,80.4,61.7,29.86,East,98,0.0,3.0,53,0.00,,,0.00,WeatherTracker,2013-03-31 00:15:00,
2013-03-30 19:20:00,80.1,61.4,29.86,West,269,0.0,3.0,53,0.00,,,0.00,WeatherTracker,2013-03-31 00:20:00,
2013-03-30 19:25:00,79.8,61.1,29.86,WSW,245,0.0,1.0,53,0.00,,,0.00,WeatherTracker,2013-03-31 00:25:00,
2013-03-30 19:30:00,79.5,61.4,29.86,SSE,152,0.0,2.0,54,0.00,,,0.00,WeatherTracker,2013-03-31 00:30:00,
2013-03-30 19:35:00,79.2,61.6,29.86,SSE,158,0.0,2.0,55,0.00,,,0.00,WeatherTracker,2013-03-31 00:35:00,
2013-03-30 19:40:00,78.8,61.2,29.86,SSE,162,0.0,3.0,55,0.00,,,0.00,WeatherTracker,2013-03-31 00:40:00,
2013-03-30 19:45:00,78.4,61.4,29.86,SSE,162,0.0,3.0,56,0.00,,,0.00,WeatherTracker,2013-03-31 00:45:00,
2013-03-30 19:50:00,77.8,61.3,29.86,SE,135,0.0,1.0,57,0.00,,,0.00,WeatherTracker,2013-03-31 00:50:00,
2013-03-30 19:55:00,77.2,61.3,29.86,SE,135,0.0,1.0,58,0.00,,,0.00,WeatherTracker,2013-03-31 00:55:00,
2013-03-30 20:00:00,76.6,61.2,29.86,SE,135,0.0,0.0,59,0.00,,,0.00,WeatherTracker,2013-03-31 01:00:00,
2013-03-30 20:05:00,76.2,61.3,29.86,SE,134,0.0,1.0,60,0.00,,,0.00,WeatherTracker,2013-03-31 01:05:00,
2013-03-30 20:10:00,75.8,61.4,29.86,SE,134,0.0,1.0,61,0.00,,,0.00,WeatherTracker,2013-03-31 01:10:00,
2013-03-30 20:15:00,75.4,61.0,29.86,SE,134,0.0,0.0,61,0.00,,,0.00,WeatherTracker,2013-03-31 01:15:00,
2013-03-30 20:20:00,74.9,61.4,29.86,SE,134,0.0,0.0,63,0.00,,,0.00,WeatherTracker,2013-03-31 01:20:00,
2013-03-30 20:25:00,74.3,61.3,29.86,SE,134,0.0,0.0,64,0.00,,,0.00,WeatherTracker,2013-03-31 01:25:00,
2013-03-30 20:30:00,74.0,61.0,29.86,SE,134,0.0,0.0,64,0.00,,,0.00,WeatherTracker,2013-03-31 01:30:00,
2013-03-30 20:35:00,73.8,61.3,29.86,SE,134,0.0,1.0,65,0.00,,,0.00,WeatherTracker,2013-03-31 01:35:00,
2013-03-30 20:40:00,73.5,61.0,29.86,SE,134,0.0,1.0,65,0.00,,,0.00,WeatherTracker,2013-03-31 01:40:00,
2013-03-30 20:45:00,73.2,61.1,29.86,SE,134,0.0,0.0,66,0.00,,,0.00,WeatherTracker,2013-03-31 01:45:00,
2013-03-30 20:50:00,72.9,60.9,29.86,SE,137,0.0,0.0,66,0.00,,,0.00,WeatherTracker,2013-03-31 01:50:00,
2013-03-30 20:55:00,72.7,61.1,29.86,SE,136,0.0,0.0,67,0.00,,,0.00,WeatherTracker,2013-03-31 01:55:00,
2013-03-30 21:00:00,72.6,61.0,29.87,SE,136,0.0,0.0,67,0.00,,,0.00,WeatherTracker,2013-03-31 02:00:00,
2013-03-30 21:05:00,72.6,61.0,29.87,SE,135,0.0,0.0,67,0.00,,,0.00,WeatherTracker,2013-03-31 02:05:00,
2013-03-30 21:10:00,72.6,61.0,29.87,SE,135,0.0,0.0,67,0.00,,,0.00,WeatherTracker,2013-03-31 02:10:00,
2013-03-30 21:16:00,72.7,61.1,29.87,SE,135,0.0,0.0,67,0.00,,,0.00,WeatherTracker,2013-03-31 02:16:00,
2013-03-30 21:21:00,72.8,61.2,29.88,SE,135,0.0,0.0,67,0.00,,,0.00,WeatherTracker,2013-03-31 02:21:00,
2013-03-30 21:26:00,73.1,61.1,29.88,SE,126,0.0,0.0,66,0.00,,,0.00,WeatherTracker,2013-03-31 02:26:00,
2013-03-30 21:31:00,73.8,61.3,29.88,SE,145,2.0,6.0,65,0.00,,,0.00,WeatherTracker,2013-03-31 02:31:00,
2013-03-30 21:36:00,74.2,62.5,29.88,NNE,22,2.0,7.0,67,0.00,,,0.00,WeatherTracker,2013-03-31 02:36:00,
2013-03-30 21:41:00,74.2,62.9,29.89,SSW,198,2.0,7.0,68,0.00,,,0.00,WeatherTracker,2013-03-31 02:41:00,
2013-03-30 21:46:00,74.0,63.2,29.89,ENE,71,3.0,6.0,69,0.00,,,0.00,WeatherTracker,2013-03-31 02:46:00,
2013-03-30 21:51:00,73.8,63.8,29.89,SSE,166,3.0,6.0,71,0.00,,,0.00,WeatherTracker,2013-03-31 02:51:00,
2013-03-30 21:56:00,73.6,64.0,29.89,SE,129,1.0,8.0,72,0.00,,,0.00,WeatherTracker,2013-03-31 02:56:00,
2013-03-30 22:01:00,73.5,63.9,29.89,SSE,152,3.0,8.0,72,0.00,,,0.00,WeatherTracker,2013-03-31 03:01:00,
2013-03-30 22:06:00,73.3,64.1,29.89,East,82,2.0,8.0,73,0.00,,,0.00,WeatherTracker,2013-03-31 03:06:00,
2013-03-30 22:11:00,73.0,64.2,29.89,South,169,6.0,9.0,74,0.00,,,0.00,WeatherTracker,2013-03-31 03:11:00,
2013-03-30 22:16:00,72.7,63.9,29.90,SE,134,3.0,9.0,74,0.00,,,0.00,WeatherTracker,2013-03-31 03:16:00,
2013-03-30 22:21:00,72.5,63.7,29.90,SE,134,0.0,7.0,74,0.00,,,0.00,WeatherTracker,2013-03-31 03:21:00,
2013-03-30 22:26:00,72.2,63.8,29.90,East,94,3.0,7.0,75,0.00,,,0.00,WeatherTracker,2013-03-31 03:26:00,
2013-03-30 22:31:00,72.0,63.6,29.91,SSE,158,0.0,6.0,75,0.00,,,0.00,WeatherTracker,2013-03-31 03:31:00,
2013-03-30 22:37:00,71.8,63.8,29.91,ENE,75,2.0,8.0,76,0.00,,,0.00,WeatherTracker,2013-03-31 03:37:00,